Other Surface Observations
Issued by NWS Tucson, AZ

Home | Current Version | Previous Version | Text Only | Print | Product List | Glossary On
Versions: 1 2 3 4 5 6 7 8 9 10 11 12 13 14 15 16 17 18 19 20 21 22 23 24 25 26 27 28 29 30 31 32 33 34 35 36 37 38 39 40 41 42 43 44 45 46 47 48 49 50
887
SXUS55 KTWC 121715
OSOTWC

WEATHER ROUNDUP FOR SOUTHEAST ARIZONA
NATIONAL WEATHER SERVICE TUCSON AZ
1015 AM MST TUE DEC 12 2017

AZZ504>506-514-121815-
LOCATION       SKY/WX    TMP DP  RH WIND       PRES   REMARKS
TUCSON         PTSUNNY   64   8  11 SE18      30.28S
DAVIS-MONTHAN  PTSUNNY   62  12  14 E9        30.26R
CHILDRENS PARK N/A      N/A N/A  41 N2                PIMA CO DEQ
ALVERNON/22ND  N/A       57 N/A N/A SE6               PIMA CO DEQ
CHERRY/GLENN   N/A       57 N/A N/A S6                PIMA CO DEQ
TANGERINE      N/A       51 N/A N/A NE4               PIMA CO DEQ
CONTL RANCH    N/A       51  21  31 E4                PIMA CO DEQ
GRANT/1ST      N/A       56  17  21 SE7               PIMA CO DEQ
CRAYCROFT/22ND N/A       57  16  20 SE5               PIMA CO DEQ
GOLFLINKS/KOLB N/A       58  13  17 SE6               PIMA CO DEQ
AJO/12TH       N/A       58  16  19 SE7               PIMA CO DEQ
FAIRGROUNDS    N/A       56 N/A N/A SE15              PIMA CO DEQ
SAGUARO        N/A       65   2   8 E8G20             *SABINO CYN
SAN CARLOS     N/A       44   3  18 CALM              *SAN CARLOS
GREEN VALLEY   N/A       48  20  33 SW1               PIMA CO DEQ
HORSE CAMP CYN N/A       53  10  18 E17G22            *ARAVAIPA CYN
RINCON MTNS    N/A       39  -4  15 E13G24            *NR MANNING CAMP
$$

AZZ509>511-121815-
LOCATION       SKY/WX    TMP DP  RH WIND       PRES   REMARKS
SAFFORD        MOSUNNY   53   4  13 E12       30.42S
STRAY HORSE    N/A       47  -8   9 SE3               *
TRAIL CABIN    N/A       46  -3  12 NE6G10            *N OF GRANVILLE
BLACK HILLS    NOT AVBL
DRY LAKE       N/A       47  -4  11 SE10G16           *NATANES MTNS
NOON CREEK     N/A       57   5  12 E3                *PINALENO MTNS
COLUMBINE      N/A       44 -18   6 E2G10             *PINALENO MTNS
GUTHRIE        N/A       44   1  16 E10G19            *SW OF GUTHRIE
$$

AZZ502-503-513-121815-
LOCATION       SKY/WX    TMP DP  RH WIND       PRES   REMARKS
NOGALES        MOSUNNY   62  14  15 VRB3      30.28F
SELLS          N/A       59  20  22 CALM              *
SASABE         N/A       48  19  32 CALM              *ALTAR VLY
HOPKINS        N/A       49   7  18 SE24G43           *SANTA RITA MTNS
CARR CYN       N/A       51  15  24 SW6G17            *W OF HEREFORD
$$

AZZ507-508-512-121815-
LOCATION       SKY/WX    TMP DP  RH WIND       PRES   REMARKS
SIERRA VISTA   PTSUNNY   55  12  18 SE14      30.37R
DOUGLAS        PTSUNNY   58  15  18 E21       30.36S
EMPIRE MTNS    NOT AVBL
MULESHOE RANCH N/A       53   6  15 E15G35            *PRESERVE
HEADQUARTERS   N/A       53   8  16 E10G23            *CHIRICAHUA MTNS
$$

.............................NOTES.............................
THIS IS AN AUTOMATED COLLECTIVE WITH MINIMAL QUALITY CONTROL.
PIMA CO DEQ SITES HAVE NONSTANDARD WIND SENSOR HEIGHTS.
PIMA CO DEQ SITES DO NOT REPORT WIND GUSTS.
* INDICATES WIND SENSORS LOCATED AT 20 FEET INSTEAD OF 33 FEET.
..............................KEY..............................
SKY/WX - SKY CONDITION/WEATHER
TMP    - TEMPERATURE IN FAHRENHEIT
DP     - DEWPOINT IN FAHRENHEIT
RH     - RELATIVE HUMIDITY IN PERCENT
WIND   - DIRECTION AND SPEED IN MILES PER HOUR (MPH)
VRB    - VARIABLE WIND DIRECTION
PRES   - MEAN SEA LEVEL PRESSURE IN INCHES OF MERCURY
         F - FALLING PRESSURE   R - RISING PRESSURE
         S - STEADY PRESSURE
VSB    - VISIBILITY IN MILES
HX     - HEAT INDEX IN FAHRENHEIT
WCI    - WIND CHILL INDEX IN FAHRENHEIT
N/A    - NOT AVAILABLE
AFB    - AIR FORCE BASE
         DAVIS-MONTHAN IS DAVIS-MONTHAN AIR FORCE BASE
CYN    - CANYON
MTNS   - MOUNTAINS
NCA    - NATIONAL CONSERVATION AREA
NR     - NEAR
VLY    - VALLEY
CONTL  - CONTINENTAL
PIMA CO DEQ - PIMA COUNTY DEPT OF ENVIRONMENTAL QUALITY



USA.gov is the U.S. government's official web portal to all federal, state and local government web resources and services.